x

8419317 - Wells, Me (welm1) Weather Station

11:54 - Wed 24th Aug 2016 All times are EDT. -4 hours from GMT.

  • Wind
    10mph, 11mph gusts
  • Sea Temp 64°f
  • Air Temp 71°f
  • Sea Pressure 1022.3mb
  • 8419317 - Wells, Me
  • 8419317 - Wells, Me

More Historic Weather Station data

Upgrade to MSW Pro to gain access to the past 30 days of data for over 8000 Wavebouys and Weather Stations around the globe.

Join Pro

Comparision Forecast

View Surf forecast
   
mer. 08/24 11:54 10 11 mph 1022.3mb 64f 71f
11:48 11 13 mph 1022.3mb 64f 71f
11:42 9 10 mph 1022.3mb 64f 72f
11:36 9 13 mph 1022.4mb 64f 71f
11:30 9 11 mph 1022.4mb 63f 72f
11:24 8 11 mph 1022.4mb 63f 72f
11:18 7 9 mph 1022.5mb 63f 74f
11:12 9 10 mph 1022.6mb 63f 72f
11:06 7 8 mph 1022.6mb 63f 74f
11:00 5 7 mph 1022.7mb 63f 75f
10:54 5 6 mph 1022.7mb 63f 76f
10:48 6
mph
1022.7mb 63f 77f
10:42 5
mph
1022.7mb 63f 76f
10:36 3 6 mph 1022.7mb 63f 75f
10:30 5 6 mph 1022.7mb 63f 74f
10:24 5 6 mph 1022.8mb 63f 74f
10:18 5 8 mph 1022.8mb 63f 74f
10:12 5 6 mph 1022.9mb 63f 76f
10:06 1 2 mph 1023mb 63f 77f
10:00 2 7 mph 1023mb 63f 76f
9:54 3 6 mph 1022.9mb 63f 76f
9:48 3 5 mph 1022.9mb 63f 75f
9:42  -  5 mph 1022.9mb 63f 75f
9:36 3 7 mph 1022.9mb 63f 74f
9:30 3 6 mph 1023mb 63f 74f
9:24 3 8 mph 1022.9mb 63f 74f
9:18 5 7 mph 1023mb 63f 73f
9:12 5 9 mph 1023mb 63f 73f
9:06 5 6 mph 1023mb 63f 73f
9:00 2 6 mph 1023mb 63f 72f
8:54  -  2 mph 1023mb 63f 73f
8:48 1 3 mph 1023mb 63f 72f
8:42 1 6 mph 1023.1mb 63f 72f
8:36 3 6 mph 1023.3mb 63f 70f
8:30 1 5 mph 1023.4mb 63f 70f
8:24 3 5 mph 1023.5mb 63f 69f
8:18 2 5 mph 1023.6mb 63f 68f
8:12 2 5 mph 1023.5mb 63f 68f
8:06 2 5 mph 1023.4mb 63f 67f
8:00 1 5 mph 1023.3mb 63f 67f
7:54 2 7 mph 1023.2mb 63f 67f
7:48 3 7 mph 1023.2mb 63f 66f
7:42 5 7 mph 1023.2mb 63f 66f
7:36 2 3 mph 1023.2mb 63f 66f
7:30  -  5 mph 1023.2mb 63f 66f
7:24 1 6 mph 1023.2mb 63f 65f
7:18 2 5 mph 1023.1mb 63f 65f
7:12  -  3 mph 1023.1mb 63f 65f
7:06  -  3 mph 1023mb 63f 65f
7:00  -  2 mph 1022.9mb 63f 65f
6:54  -  3 mph 1022.8mb 63f 64f
6:48 2 6 mph 1022.6mb 63f 63f
6:42 1 5 mph 1022.6mb 62f 63f
6:36  -  6 mph 1022.5mb 62f 63f
6:30 1 6 mph 1022.6mb 62f 63f
6:24 2 6 mph 1022.7mb 62f 62f
6:18 3 7 mph 1022.7mb 62f 62f
6:12 3 6 mph 1022.6mb 62f 62f
6:06 2 5 mph 1022.6mb 62f 62f
6:00 1 5 mph 1022.5mb 62f 62f
5:54 1 5 mph 1022.4mb 62f 62f
5:48  -  2 mph 1022.3mb 62f 62f
5:42 1 6 mph 1022.3mb 62f 62f
5:36 3 5 mph 1022.4mb 62f 62f
5:30  -  2 mph 1022.4mb 62f 63f
5:24 1 5 mph 1022.3mb 62f 63f
5:18 2 6 mph 1022.3mb 62f 63f
5:12 2 6 mph 1022.3mb 62f 62f
5:06 2 5 mph 1022.3mb 63f 62f
5:00  -  2 mph 1022.3mb 63f 62f
4:54 3 6 mph 1022.3mb 63f 62f
4:48 1 5 mph 1022.2mb 63f 62f
4:42 3 9 mph 1022.2mb 63f 62f
4:36 5 9 mph 1022.1mb 63f 62f
4:30 6 11 mph 1022mb 63f 62f
4:24 7 10 mph 1022mb 63f 62f
4:18 7 10 mph 1022.1mb 63f 63f
4:12 6 9 mph 1022.1mb 62f 63f
4:06 5 8 mph 1022.2mb 62f 63f
4:00 5 8 mph 1022.2mb 62f 63f
3:54 5 8 mph 1022.2mb 62f 63f
3:48 5 9 mph 1022.3mb 62f 63f
3:42 7 9 mph 1022.3mb 62f 63f
3:36 5 7 mph 1022.4mb 62f 63f
3:30 3 6 mph 1022.6mb 62f 63f
3:24 2 5 mph 1022.6mb 62f 63f
3:18 3 5 mph 1022.6mb 62f 63f
3:12 3 5 mph 1022.6mb 62f 62f
3:06 3 7 mph 1022.7mb 62f 62f
3:00 2 6 mph 1022.6mb 62f 63f
2:54 5 7 mph 1022.6mb 62f 62f
2:48 1 2 mph 1022.6mb 62f -
2:42 1
mph
1022.6mb 62f -
2:36  -  1 mph 1022.5mb 62f -
2:30  -  2 mph 1022.5mb 62f 62f
2:24 2 3 mph 1022.5mb 62f 62f
2:18 2 3 mph 1022.6mb 63f 62f
2:12 2 3 mph 1022.6mb 63f 60f
2:06 1 2 mph 1022.6mb 63f 62f
2:00 2 5 mph 1022.7mb 63f 62f
1:54 5
mph
1022.7mb 63f 61f
1:48 2
mph
1022.8mb 63f 61f
1:42 2 3 mph 1022.8mb 63f 61f
1:36 1 2 mph 1022.7mb 63f 60f
1:30  -  3 mph 1022.7mb 63f 59f
1:24 3
mph
1022.8mb 63f 60f
1:18 2 3 mph 1022.9mb 64f 62f
1:12 2 3 mph 1022.9mb 64f 62f
1:06 3 5 mph 1023mb 65f 61f
1:00  -  3 mph 1023.1mb 65f 62f
12:54 3
mph
1023.1mb 66f 63f
12:48 3
mph
1023.1mb 66f 62f
12:42 3
mph
1023.2mb 67f 61f
12:36 2 3 mph 1023.2mb 67f 60f
12:30 1 2 mph 1023.2mb 67f 61f
12:24  -  1 mph 1023.1mb 67f 62f
12:18  -  2 mph 1023.1mb 67f 61f
12:12 1 3 mph 1023.2mb 67f 64f
12:06 2 5 mph 1023.1mb 67f 65f
12:00 5 6 mph 1023.1mb 67f 65f
mar. 08/23 11:54 5 6 mph 1023mb 67f 65f
11:48 3 5 mph 1023mb 67f 64f
11:42 2
mph
1022.9mb 67f 63f
11:36 1
mph
1022.9mb 67f 63f
11:30  -  3 mph 1022.9mb 67f 64f
11:24 2 3 mph 1022.8mb 67f 64f
11:18 1
mph
1022.8mb 67f 63f
11:12 1 3 mph 1022.8mb 67f 64f
11:06 3
mph
1022.8mb 66f 65f
11:00 2 3 mph 1022.7mb 66f 65f
10:54 3
mph
1022.7mb 66f 65f
10:48 1 2 mph 1022.6mb 66f 64f
10:42  -  1 mph 1022.6mb 65f 64f
10:36 1 2 mph 1022.5mb 65f 64f
10:30  -  3 mph 1022.4mb 65f 66f
10:24 3 5 mph 1022.3mb 65f 67f
10:18 3 5 mph 1022.3mb 65f 67f
10:12 3 6 mph 1022.3mb 65f 68f
10:06 6
mph
1022.4mb 65f 68f
10:00 5 6 mph 1022.4mb 65f 68f
9:54 3 6 mph 1022.4mb 65f 68f
9:48 6 7 mph 1022.3mb 65f 69f
9:42 5 6 mph 1022.3mb 65f 69f
9:36 5
mph
1022.3mb 65f 69f
9:30 3 5 mph 1022.2mb 65f 67f
9:24 2 5 mph 1022.3mb 65f 67f
9:18  -  mph 1022.2mb 65f 68f
9:12  -  mph 1022.2mb 65f 68f
9:06  -  mph 1022.2mb 65f 65f
9:00  -  mph 1022.1mb 65f 65f
8:54  -  mph 1022mb 65f 65f
8:48 3 5 mph 1021.9mb 65f 65f
8:42 2
mph
1021.9mb 65f 65f
8:36  -  2 mph 1022mb 65f 65f
8:30  -  mph 1022mb 65f 65f
8:24  -  mph 1021.9mb 65f 66f
8:18  -  mph 1021.9mb 65f 66f
8:12  -  mph 1021.9mb 65f 66f
8:06  -  mph 1021.7mb 65f 66f
8:00 5 6 mph 1021.6mb 65f 67f
7:54 6
mph
1021.6mb 65f 67f
7:48 5 6 mph - 65f -
7:42 6 7 mph - 65f -
7:36 6 7 mph - 65f -
7:30 8
mph
1021.5mb 64f 67f
7:24 7 8 mph 1021.5mb 64f 67f
7:18  -  mph 1021.6mb 64f 68f
7:12  -  mph 1021.6mb 64f 69f
7:06  -  mph 1021.6mb 64f 68f
7:00 9 11 mph 1021.6mb 64f 69f
6:54 7 9 mph 1021.6mb 64f 69f
6:48  -  mph - 64f 70f
6:42  -  mph - 64f 71f
6:36  -  mph - 64f 73f
6:30 3 7 mph 1021.5mb 64f 78f
6:24 6 8 mph 1021.4mb 64f 73f
6:18 7 9 mph 1021.5mb 64f 73f
6:12 6 8 mph 1021.5mb 64f 79f
6:06 6 11 mph 1021.5mb 63f 79f
6:00  -  mph 1021.5mb 63f 79f
5:54  -  mph 1021.5mb 63f 79f
5:48 8 10 mph - 63f 78f
5:42 3 9 mph - 63f 74f
5:36 7 13 mph - 63f 74f
5:30 7 11 mph 1021.7mb 63f 71f
5:24 11 14 mph 1021.7mb 63f 71f
5:18 11 14 mph 1021.8mb 63f 70f
5:12 13 15 mph 1021.8mb 63f 71f
5:06 13 14 mph 1021.8mb 63f 71f
5:00 14 16 mph 1021.9mb 63f 71f
4:54 13 16 mph 1021.9mb 63f 71f
4:48 10 13 mph 1021.9mb 63f 72f
4:42 9 16 mph 1021.9mb 62f 73f
4:36 8 13 mph 1022mb 62f 73f
4:30 3 11 mph 1021.9mb 62f 79f
4:24 7 10 mph 1021.8mb 62f 78f
4:18 3 8 mph 1021.9mb 62f 80f
4:12 6 10 mph 1022mb 62f 80f
4:06 9 14 mph 1022mb 62f 79f
4:00 6 13 mph 1022mb 62f 79f
3:54 5 13 mph 1022mb 62f 79f
3:48 8 16 mph 1022.1mb 62f 78f
3:42 7 11 mph 1022.1mb 62f 79f
3:36 6 8 mph 1022.2mb 62f 78f
3:30 8 14 mph 1022.2mb 62f 78f
3:24 8 14 mph 1022.2mb 62f 77f
3:18 7 13 mph 1022.3mb 62f 78f
3:12 6 14 mph 1022.5mb 62f 78f
3:06 7 13 mph 1022.5mb 62f 78f
3:00 9 15 mph 1022.5mb 62f 78f
2:54 8 15 mph 1022.5mb 62f 78f
2:48 8 13 mph 1022.6mb 62f 78f
2:42 6 11 mph 1022.7mb 62f 78f
2:36 6 14 mph 1022.8mb 62f 77f
2:30 9 15 mph 1022.8mb 62f 78f
2:24 7 11 mph 1022.7mb 62f 78f
2:18 5 9 mph 1022.7mb 62f 77f
2:12 5 14 mph 1022.8mb 62f 78f
2:06 6 11 mph 1022.9mb 62f 77f
2:00 7 10 mph 1023mb 62f 77f
1:54 6 8 mph 1023mb 62f 76f
1:48 8 10 mph 1023mb 62f 76f
1:42 8 14 mph 1023mb 62f 76f
1:36 8 15 mph 1022.9mb 62f 76f
1:30 6 8 mph 1022.9mb 62f 76f
1:24 8 11 mph 1023mb 62f 76f
1:18 6 9 mph 1023.1mb 62f 76f
1:12 8 14 mph 1023.1mb 62f 76f
1:06 7 14 mph 1023.1mb 62f 75f
1:00 7 11 mph 1023.1mb 62f 76f
12:54 8 14 mph 1023.1mb 62f 76f
12:48 6 10 mph 1023.2mb 61f 76f
12:42 9 14 mph 1023.2mb 61f 76f
12:36 5 8 mph 1023.2mb 61f 75f
12:30 6 10 mph 1023.2mb 61f 75f
12:24 8 11 mph 1023.2mb 61f 75f
12:18 10 14 mph 1023.3mb 60f 75f
12:12 7 14 mph 1023.3mb 60f 74f
12:06 8 13 mph 1023.4mb 60f 75f
12:00 8 11 mph 1023.5mb 60f 75f
11:54 6 10 mph 1023.5mb 60f 75f
11:48 6 10 mph 1023.5mb 60f 74f
11:42 2 11 mph 1023.6mb 60f 74f
11:36 5 10 mph 1023.6mb 60f 74f
11:30 5 7 mph 1023.6mb 60f 74f
11:24 7 13 mph 1023.6mb 60f 73f
11:18 6 10 mph 1023.6mb 60f 73f
11:12 6 10 mph 1023.6mb 60f 73f
11:06 6 10 mph 1023.7mb 60f 73f
11:00 6 9 mph 1023.7mb 60f 73f
10:54 6 10 mph 1023.8mb 60f 73f
10:48 6 9 mph 1023.9mb 60f 72f
10:42 3 9 mph 1023.9mb 60f 72f
10:36 3 8 mph 1023.9mb 59f 72f
10:30 5 9 mph 1023.9mb 59f 71f
10:24 3 7 mph 1023.9mb 59f 71f
10:18 3 6 mph 1023.9mb 59f 71f
10:12 5 8 mph 1023.9mb 59f 70f
10:06 5 9 mph 1023.9mb 59f 70f
10:00 7 10 mph 1024mb 59f 69f
9:54 5 8 mph 1023.9mb 59f 69f
9:48 7 10 mph 1023.9mb 59f 69f
9:42 6 10 mph 1024mb 59f 69f
9:36 8 10 mph 1024mb 59f 68f
9:30 6 8 mph 1024mb 59f 68f
9:24 6 10 mph 1024mb 59f 67f
9:18 7 10 mph 1024mb 59f 67f
9:12 7 10 mph 1023.9mb 59f 67f
9:06 7 9 mph 1023.8mb 59f 67f
9:00 8 10 mph 1023.7mb 59f 66f
8:54 6 9 mph 1023.7mb 59f 66f
8:48 7 9 mph 1023.7mb 59f 65f
8:42 6 10 mph 1023.7mb 59f 65f
8:36 7 13 mph 1023.6mb 59f 65f
8:30 8 13 mph 1023.6mb 59f 64f
8:24 8 13 mph 1023.5mb 59f 64f
8:18 7 11 mph 1023.5mb 60f 64f
8:12 7 13 mph 1023.5mb 60f 63f
8:06 8 13 mph 1023.5mb 60f 63f
8:00 9 14 mph 1023.5mb 60f 62f
7:54 8 13 mph 1023.5mb 60f 62f
7:48 11 16 mph 1023.5mb 59f 62f
7:42 9 15 mph 1023.4mb 59f 61f
7:36 10 15 mph 1023.3mb 59f 60f
7:30 8 11 mph 1023.3mb 59f 60f
7:24 7 10 mph 1023.3mb 59f 59f
7:18 5 9 mph 1023.2mb 59f 59f
7:12 6 10 mph 1023.3mb 59f 59f
7:06 6 8 mph 1023.2mb 59f 59f
7:00 5 7 mph 1023.2mb 59f 59f
6:54 1 5 mph 1023.1mb 59f 60f
6:48 1 7 mph 1023.1mb 59f 59f
6:42 5 7 mph 1023mb 59f 58f
6:36 6 9 mph 1022.9mb 59f 57f
6:30 5 8 mph 1022.9mb 59f 57f
6:24 5 9 mph 1022.8mb 59f 57f
6:18 6 9 mph 1022.9mb 59f 56f
6:12 6 9 mph 1022.9mb 59f 56f
6:06 7 10 mph 1022.6mb 59f 56f
6:00 7 11 mph 1022.5mb 59f 56f
5:54 8 11 mph 1022.4mb 59f 56f
5:48 7 10 mph 1022.4mb 59f 56f
5:42 6 9 mph 1022.4mb 59f 56f
5:36 6 9 mph 1022.3mb 59f 56f
5:30 6 9 mph 1022.3mb 59f 56f
5:24 7 11 mph 1022.2mb 59f 56f
5:18 7 10 mph 1022.1mb 59f 56f
5:12 6 9 mph 1022mb 59f 56f
5:06 6 9 mph 1021.9mb 59f 56f
5:00 7 9 mph 1021.8mb 59f 56f
4:54 7 10 mph 1021.7mb 59f 56f
4:48 6 9 mph 1021.7mb 59f 56f
4:42 6 8 mph 1021.6mb 59f 56f
4:36 7 9 mph 1021.6mb 59f 56f
4:30 7 9 mph 1021.6mb 59f 56f
4:24 6 8 mph 1021.6mb 59f 57f
4:18 6 9 mph 1021.6mb 59f 57f
4:12 6 10 mph 1021.5mb 59f 57f
4:06 7 10 mph 1021.5mb 59f 57f
4:00 8 10 mph 1021.5mb 59f 58f
3:54 6 9 mph 1021.5mb 59f 58f
3:48 7 10 mph 1021.4mb 59f 58f
3:42 8 10 mph 1021.4mb 59f 58f
3:36 8 13 mph 1021.3mb 59f 58f
3:30 8 14 mph 1021.2mb 59f 58f
3:24 9 13 mph 1021.2mb 59f 58f
3:18 7 13 mph 1021.2mb 59f 58f
3:12 8 13 mph 1021.2mb 59f 58f
3:06 9 14 mph 1021.2mb 59f 58f
3:00 8 14 mph 1021.2mb 59f 57f
2:54 7 10 mph 1021.2mb 59f 57f
2:48 6 10 mph 1021.1mb 59f -
2:42 6 9 mph 1021.2mb 59f -
2:36 6 10 mph 1021.1mb 59f -
2:30 7 10 mph 1021.1mb 59f 57f
2:24 7 10 mph 1021mb 59f 57f
2:18 8 11 mph 1020.9mb 59f 57f
2:12 7 10 mph 1020.9mb 59f 57f
2:06 6 10 mph 1020.8mb 59f 57f
2:00 5 10 mph 1020.9mb 59f 57f
1:54 7 10 mph 1020.8mb 59f 58f
1:48 7 10 mph 1020.7mb - -
1:42 7 11 mph 1020.6mb - -
1:36 7 10 mph 1020.7mb - -
1:30 7 10 mph 1020.7mb 58f 58f
1:24 6 9 mph 1020.6mb 58f 58f
1:18 7 9 mph 1020.6mb 58f 58f
1:12 6 11 mph 1020.5mb 58f 59f
1:06 6 8 mph 1020.5mb 58f 59f
1:00 7 9 mph 1020.4mb 58f 59f
12:54 7 13 mph 1020.5mb 58f 58f
12:48 7 10 mph 1020.5mb 58f 58f
12:42 7 11 mph 1020.3mb 58f 58f
12:36 6 10 mph 1020.2mb 58f 58f
12:30 7 10 mph 1020.2mb 58f 58f
12:24 8 11 mph 1020.3mb 59f 58f
12:18 7 11 mph 1020.2mb 59f 58f
12:12 6 9 mph 1020.3mb 60f 58f
12:06 6 8 mph 1020.2mb 61f 58f
12:00 6 9 mph 1020.2mb 62f 59f
lun. 08/22 11:54 6 9 mph 1020.1mb 63f 59f
11:48 6 9 mph 1020mb 64f 59f
11:42 6 8 mph 1020mb 65f 59f
11:36 6 9 mph 1019.9mb 65f 60f
11:30 5 8 mph 1019.9mb 66f 60f
11:24 6 7 mph 1019.7mb 68f 60f
11:18 5 7 mph 1019.7mb 69f 60f
11:12 5 7 mph 1019.6mb 69f 60f
11:06 3 5 mph 1019.5mb 69f 60f
11:00 3 7 mph 1019.5mb 69f 61f
10:54 3 8 mph 1019.5mb 69f 61f
10:48 5 8 mph 1019.3mb 69f 61f
10:42 5 8 mph 1019.3mb 69f 61f
10:36 6 8 mph 1019.3mb 69f 61f
10:30 6 8 mph 1019.2mb 69f 62f
10:24 7 9 mph 1019.1mb 69f 62f
10:18 7 9 mph - 68f 62f
10:12 6 8 mph - 68f 61f
10:06 5 7 mph - 68f 61f
10:00  -  mph 1018.9mb 68f 62f
9:54  -  mph 1018.9mb 68f 62f
9:48 6 8 mph 1018.8mb 68f 62f
9:42 6 8 mph 1018.6mb 68f 62f
9:36 5 8 mph 1018.5mb 68f 62f
9:30 6 8 mph 1018.4mb 68f 62f
9:24 6 8 mph 1018.2mb 68f 63f
9:18  -  mph 1018.1mb 68f 63f
9:12  -  mph 1018.1mb 68f 63f
9:06  -  mph 1018.1mb 67f 63f
9:00  -  mph 1018mb 67f 63f
8:54  -  mph 1017.9mb 67f 64f
8:48 6 9 mph 1017.8mb 67f 64f
8:42 6 8 mph 1017.7mb 67f 64f
8:36 7 9 mph 1017.5mb 67f 64f
8:30 5 6 mph - 67f 64f
8:24 6 10 mph - 67f 65f
8:18 7 10 mph 1016.9mb 67f 65f
8:12 7 11 mph 1016.7mb 67f 65f
8:06 7 13 mph 1016.7mb 66f 65f
8:00 7 11 mph 1016.4mb 66f 65f
7:54 5 9 mph 1016.5mb 66f 65f
7:48  -  mph 1016.5mb 66f -
7:42  -  mph 1016.4mb 66f -
7:36  -  mph 1016.4mb 66f -
7:30 5 8 mph 1016.3mb 65f 67f
7:24 6 9 mph 1016.2mb 65f 67f
7:18  -  mph 1016.1mb 65f 67f
7:12  -  mph 1015.8mb 65f 67f
7:06  -  mph 1015.7mb 65f 68f
7:00  -  mph 1015.5mb 65f 68f
6:54  -  mph 1015.2mb 64f 68f
6:48 6 13 mph - 64f -
6:42 10 15 mph - 64f -
6:36 11 20 mph - 64f -
6:30 10 14 mph - 64f 69f
6:24 10 18 mph - 64f 69f
6:18 13 20 mph - 64f 69f
6:12 15 23 mph - 64f 69f
6:06 10 15 mph - 65f 69f
6:00 9 20 mph 1014.4mb 65f 70f
5:54 13 20 mph 1014.3mb 65f 70f
5:48 13 20 mph - 65f 70f
5:42 14 20 mph - 64f 70f
5:36 14 20 mph - 64f 70f
5:30 11 18 mph 1013.9mb 64f 70f
5:24 10 23 mph 1013.8mb 64f 70f
5:18 13 20 mph 1013.7mb 64f 70f
5:12 14 22 mph 1013.5mb 64f 70f
5:06 17 25 mph 1013.4mb 64f 70f
5:00 11 21 mph 1013.3mb 63f 71f
4:54 13 18 mph 1013.2mb 63f 70f
4:48 15 22 mph 1013mb 63f 71f
4:42 13 23 mph 1012.9mb 63f 71f
4:36 13 21 mph 1012.8mb 63f 71f
4:30 18 25 mph 1012.7mb 63f 70f
4:24 10 25 mph 1012.6mb 62f 71f
4:18 16 29 mph 1012.5mb 62f 71f
4:12 13 18 mph 1012.4mb 62f 71f
4:06 15 22 mph 1012.3mb 62f 71f
4:00 15 25 mph 1012.2mb 62f 71f
3:54 13 21 mph 1012.1mb 62f 71f
3:48 18 23 mph 1012mb 62f 71f
3:42 11 24 mph 1011.9mb 62f 72f
3:36 10 20 mph 1011.8mb 61f 72f
3:30 13 24 mph 1011.9mb 61f 72f
3:24 17 26 mph 1011.7mb 61f 72f
3:18 14 25 mph 1011.7mb 61f 72f
3:12 13 23 mph 1011.6mb 61f 72f
3:06 13 20 mph 1011.5mb 61f 71f
3:00 14 24 mph 1011.5mb 61f 72f
2:54 14 23 mph 1011.3mb 61f 72f
2:48 14 22 mph 1011.3mb - -
2:42 14 21 mph 1011.3mb - -
2:36 11 18 mph 1011.2mb - -
2:30 11 18 mph 1011.1mb - -
2:24 10 16 mph 1011.1mb - -
2:18 11 18 mph 1011mb 62f 72f
2:12 14 20 mph 1011.1mb 62f 72f
2:06 13 23 mph 1011mb 62f 72f
2:00 20 25 mph 1010.9mb 62f 72f
1:54 18 30 mph 1010.9mb 62f 72f
1:48 16 24 mph 1010.8mb 62f 72f
1:42 18 25 mph 1010.9mb 62f 72f
1:36 16 26 mph 1010.8mb 62f 72f
1:30 10 17 mph 1010.7mb 62f 73f
1:24 14 22 mph 1010.6mb 62f 73f
1:18 15 25 mph 1010.6mb 62f 72f
1:12 14 21 mph 1010.5mb 62f 73f
1:06 11 21 mph 1010.4mb 62f 73f
1:00 14 20 mph 1010.4mb 62f 73f
12:54 15 20 mph 1010.3mb 62f 73f
12:48 15 23 mph 1010.2mb 62f 73f
12:42 11 21 mph 1010.1mb 63f 73f
12:36 9 24 mph 1010.1mb 63f 74f
12:30 17 23 mph 1009.9mb 63f 73f
12:24 14 20 mph 1010mb 63f 73f
12:18 14 22 mph 1010mb 63f 73f
12:12 17 23 mph 1010mb 64f 73f
12:06 15 23 mph 1010mb 64f 74f
12:00 13 22 mph 1009.9mb 64f 74f
11:54 14 22 mph 1009.8mb 65f 73f
11:48 15 22 mph 1009.8mb 65f 73f
11:42 11 18 mph 1009.8mb 66f 74f
11:36 15 22 mph 1009.7mb 67f 73f
11:30 10 22 mph 1009.7mb 67f 74f
11:24 15 22 mph 1009.7mb 68f 73f
11:18 13 21 mph 1009.6mb 68f 74f
11:12 9 21 mph 1009.5mb 68f 74f
11:06 15 26 mph 1009.4mb 68f 73f
11:00 11 17 mph 1009.3mb 69f 74f
10:54 11 20 mph 1009.3mb 69f 74f
10:48 11 17 mph 1009.3mb 69f 74f
10:42 11 18 mph 1009.3mb 69f 74f
10:36 15 21 mph 1009.3mb 69f 73f
10:30 14 18 mph 1009.2mb 69f 74f
10:24 14 20 mph 1009.1mb 69f 74f
10:18 13 16 mph 1008.9mb 69f 74f
10:12 15 21 mph 1008.9mb 69f 73f
10:06 9 16 mph 1009mb 69f 73f
10:00 13 18 mph 1008.8mb 69f 73f
9:54 8 14 mph 1008.8mb 69f 73f
9:48 11 14 mph 1008.7mb 69f 73f
9:42 8 14 mph 1008.6mb 69f 72f
9:36 7 9 mph 1008.6mb 69f 73f
9:30 8 11 mph 1008.6mb 69f 72f
9:24 8 14 mph 1008.5mb 69f 71f
9:18 7 9 mph 1008.4mb 69f 71f
9:12 7 11 mph 1008.3mb 69f 71f
9:06 9 11 mph 1008.3mb 69f 71f
9:00 10 14 mph 1008.3mb 69f 70f
8:54 8 13 mph 1008.3mb 69f 70f
8:48 8 11 mph 1008.2mb 69f 70f
8:42 10 15 mph 1008mb 69f 69f
8:36 11 15 mph 1008.1mb 69f 69f
8:30 9 14 mph 1008mb 69f 69f
8:24 8 13 mph 1008mb 69f 69f
8:18 7 14 mph 1007.9mb 69f 68f
8:12 10 14 mph 1007.8mb 69f 68f
8:06 10 15 mph 1007.7mb 69f 68f
8:00 8 11 mph 1007.7mb 69f 67f
7:54 10 14 mph 1007.5mb 69f 67f
7:48 11 15 mph 1007.6mb 68f 67f
7:42 8 13 mph 1007.5mb 68f 66f
7:36 10 13 mph 1007.5mb 68f 66f
7:30 8 11 mph 1007.3mb 68f 67f
7:24 9 14 mph 1007.2mb 68f 67f
7:18 11 16 mph 1007mb 68f 67f
7:12 11 16 mph 1006.8mb 68f 67f
7:06 11 16 mph 1006.6mb 68f 67f
7:00 9 14 mph 1006.3mb 68f 67f
6:54 10 17 mph 1006.3mb 68f 67f
6:48 10 14 mph 1006.3mb 68f 67f
6:42 13 16 mph 1006.1mb 68f 67f
6:36 14 20 mph 1006mb 68f 67f
6:30 13 15 mph 1005.9mb 68f 68f
6:24 9 13 mph 1005.8mb 68f 68f
6:18 8 13 mph 1005.9mb 68f 68f
6:12 9 13 mph 1005.9mb 68f 68f
6:06 7 10 mph 1005.8mb 68f 68f
6:00 7 10 mph 1005.7mb 68f 68f
5:54 8 14 mph 1005.5mb 68f 68f
5:48 10 14 mph 1005.6mb 68f 68f
5:42 10 14 mph 1005.8mb 68f 68f
5:36 9 11 mph 1005.8mb 68f 68f
5:30 5 6 mph 1005.8mb 68f 68f
5:24 2
mph
1005.8mb 68f 68f
5:18 1 6 mph 1005.7mb 68f 69f
5:12 5 10 mph 1005.8mb 68f 68f
5:06 3 5 mph 1005.9mb 68f 68f
5:00 2 5 mph 1005.9mb 67f 68f
4:54 3 6 mph 1005.9mb 67f 68f
4:48 2 3 mph 1005.8mb 67f 68f
4:42 2 5 mph 1005.9mb 67f 68f
4:36 1 3 mph 1006.1mb 67f 67f
4:30 2 3 mph 1006.2mb 67f 67f
4:24 2 5 mph 1006.3mb 67f 67f
4:18 3 6 mph 1006.4mb 67f 67f
4:12 5 6 mph 1006.6mb 67f 67f
4:06 6 9 mph 1006.8mb 67f 67f
4:00 7 8 mph 1007mb 67f 67f
3:54 8 10 mph 1007.2mb 67f 67f
3:48 8 9 mph 1007.2mb 67f 67f
3:42 8 11 mph 1007.2mb 67f 68f
3:36 9 11 mph 1007.4mb 67f 68f
3:30 9 11 mph 1007.4mb 67f 68f
3:24 7 11 mph 1007.3mb 66f 68f
3:18 9 10 mph 1007.5mb 66f 68f
3:12 7 9 mph 1007.4mb 66f 67f
3:06 7 9 mph 1007.6mb 66f 67f
3:00 8 10 mph 1007.6mb 66f 67f
2:54 8 9 mph 1007.7mb 66f 67f
2:48 6 7 mph 1007.6mb 66f -
2:42 5 6 mph 1007.6mb 66f -
2:36 5 6 mph 1007.6mb 66f -
2:30 5 7 mph 1007.7mb 66f 67f
2:24 6 7 mph 1007.6mb 66f 68f
2:18 6 7 mph 1007.8mb 67f 68f
2:12 5 7 mph 1007.8mb 67f 68f
2:06 5 6 mph 1007.8mb 67f 68f
2:00 5 6 mph 1007.9mb 67f 68f
1:54 3 6 mph 1008mb 67f 68f
1:48 5 6 mph - - -
1:42 3 5 mph - - -
1:36 3
mph
- - -
1:30 2 3 mph 1008.4mb 67f 68f
1:24 2 3 mph 1008.4mb 67f 68f
1:18 1 5 mph 1008.5mb 67f 68f
1:12 1 3 mph 1008.6mb 67f 68f
1:06 1 2 mph 1008.8mb 67f 68f
1:00 1 2 mph 1008.9mb 67f 68f
12:54 2
mph
1009mb 67f 68f
12:48 2 3 mph 1009mb 67f 68f
12:42 2 3 mph 1009.1mb 67f 68f
12:36 3 5 mph 1009.2mb 67f 68f
12:30 2 3 mph 1009.3mb 67f 68f
12:24 3 5 mph 1009.3mb 67f 68f
12:18 3 6 mph 1009.4mb 67f 68f
12:12 6 8 mph 1009.5mb 67f 68f
12:06 6 8 mph 1009.6mb 67f 68f
12:00 6 8 mph 1009.7mb 68f 68f
dim. 08/21 11:54 7 8 mph 1009.8mb 68f 68f
11:48 6 7 mph 1009.8mb 68f 68f
11:42 8 9 mph 1009.8mb 68f 68f
11:36 7 8 mph 1009.9mb 68f 68f
11:30 6 7 mph 1010mb 68f 69f
11:24 7 10 mph 1010.1mb 69f 68f
11:18 7 8 mph 1010.1mb 69f 68f
11:12 8 9 mph 1010.1mb 69f 68f
11:06 7 9 mph 1010.2mb 70f 68f
11:00 7 9 mph 1010.2mb 71f 69f
10:54 7 9 mph 1010.1mb 72f 68f
10:48 8 10 mph 1010.2mb 73f 69f
10:42 6 7 mph 1010.2mb 73f 69f
10:36 6 8 mph 1010.2mb 73f 69f
10:30  -  mph 1010.3mb 73f 69f
10:24  -  mph 1010.4mb 73f 69f
10:18 7 8 mph 1010.4mb 73f 69f
10:12 7 9 mph 1010.5mb 73f 69f
10:06 8 9 mph 1010.5mb 73f 69f
10:00  -  mph 1010.8mb 73f 69f
9:54  -  mph 1010.7mb 73f 69f
9:48  -  mph - 73f -
9:42  -  mph - 73f -
9:36  -  mph - 73f -
9:30  -  mph 1011mb 73f 69f
9:24  -  mph 1011.1mb 73f 69f
9:18  -  mph - 73f 69f
9:12  -  mph - 73f 69f
9:06  -  mph - 73f 69f
9:00  -  mph 1011.3mb 73f 69f
8:54  -  mph 1011.3mb 72f 69f
8:48 5 6 mph - 72f 69f
8:42 3 6 mph - 72f 69f
8:36 5 6 mph - 72f 69f
8:30 3 5 mph - 72f 69f
8:24 5 6 mph - 72f 69f
8:18  -  mph - 72f 69f
8:12  -  mph - 72f 69f
8:06  -  mph - 72f 69f
8:00  -  mph 1011.2mb 72f 69f
7:54  -  mph 1011.3mb 72f 69f
7:48  -  mph 1011.5mb 72f -
7:42  -  mph 1011.5mb 72f -
7:36  -  mph 1011.5mb 72f -
7:30  -  mph 1011.4mb 71f 69f
7:24  -  mph 1011.5mb 71f 69f
7:18 5 6 mph 1011.6mb 71f 69f
7:12 5 6 mph 1011.6mb 71f 69f
7:06 3 5 mph 1011.7mb 71f 69f
7:00 5
mph
1011.7mb 71f 69f
6:54 3 5 mph 1011.8mb 71f 69f
6:48  -  mph - 71f -
6:42  -  mph - 71f -
6:36  -  mph - 70f -
6:30  -  mph 1012mb 70f 69f
6:24  -  mph 1012.1mb 70f 69f
6:18  -  mph 1012.1mb 70f 70f
6:12  -  mph 1012.2mb 70f 70f
6:06  -  mph 1012.1mb 70f 70f
6:00  -  mph 1012.1mb 70f 70f
5:54  -  mph 1012.1mb 70f 70f
5:48 7 9 mph - 70f 70f
5:42 7 9 mph - 70f 70f
5:36 7 9 mph - 69f 70f
5:30 6 9 mph 1012.4mb 69f 70f
5:24 8 10 mph 1012.4mb 69f 70f
5:18 7 9 mph 1012.3mb 69f 70f
5:12 7 9 mph 1012.3mb 69f 70f
5:06 6 8 mph 1012.3mb 69f 70f
5:00 7 9 mph 1012.4mb 69f 70f
4:54 6 8 mph 1012.6mb 69f 71f
4:48 7 10 mph 1012.5mb 69f 71f
4:42 7 10 mph 1012.5mb 68f 71f
4:36 8 10 mph 1012.5mb 68f 71f
4:30 8 10 mph 1012.5mb 68f 71f
4:24 8 10 mph 1012.6mb 68f 71f
4:18 9 10 mph 1012.5mb 68f 71f
4:12 8 9 mph 1012.6mb 68f 71f
4:06 7 9 mph 1012.7mb 67f 71f
4:00 8 9 mph 1012.6mb 67f 71f
3:54 7 9 mph 1012.7mb 67f 71f
3:48 8 10 mph 1012.8mb 67f 71f
3:42 8 10 mph 1012.8mb 67f 71f
3:36 9 11 mph 1012.8mb 67f 71f
3:30 9 11 mph 1012.8mb 66f 71f
3:24 9 11 mph 1012.9mb 66f 71f
3:06 8 11 mph 1013.1mb 66f 71f
3:00 9 13 mph 1013.1mb 66f 71f
2:54 10 13 mph 1013.1mb 66f 71f
2:48 9 10 mph 1013.3mb 66f 71f
2:42 7 10 mph 1013.4mb 66f 71f
2:36 9 10 mph 1013.5mb 66f 71f
2:30 8 9 mph 1013.6mb 66f 71f
2:24 8 10 mph 1013.6mb 66f 71f
2:18 8 11 mph 1013.6mb 66f 71f
2:12 8 10 mph 1013.7mb 66f 71f
2:06 8 11 mph 1013.8mb 65f 71f
2:00 8 11 mph 1013.8mb 65f 71f
1:54 8 10 mph 1013.9mb 65f 71f
1:48 9 11 mph 1013.9mb 65f 71f
1:42 8 10 mph 1014.1mb 65f 71f
1:36 8 9 mph 1014.1mb 65f 71f
1:30 8 9 mph 1014.1mb 65f 71f
1:24 8 9 mph 1014.1mb 65f 71f
1:18 6 8 mph 1014.2mb 66f 71f
1:12 6 9 mph 1014.3mb 66f 71f
1:06 6 7 mph 1014.3mb 66f 71f
1:00 7 8 mph 1014.5mb 66f 71f
12:54 6 8 mph 1014.6mb 66f 70f
12:48 7 9 mph 1014.6mb 66f 71f
12:42 6 8 mph 1014.6mb 65f 71f
12:36 7 9 mph 1014.5mb 65f 70f
12:30 8 10 mph 1014.5mb 65f 70f
12:24 8 10 mph 1014.6mb 65f 70f
12:18 7 10 mph 1014.6mb 65f 70f
12:12 7 10 mph 1014.7mb 65f 70f
12:06 7 9 mph 1014.8mb 65f 70f
12:00 6 8 mph 1014.9mb 65f 71f
11:54 7 8 mph 1015mb 65f 70f
11:48 7 9 mph 1015mb 65f 70f
11:42 6 7 mph 1015mb 65f 70f
11:36 6 8 mph 1015.1mb 65f 70f
11:30 6 7 mph 1015.2mb 65f 71f
11:24 5 7 mph 1015.2mb 65f 70f
11:18 6 7 mph 1015.4mb 65f 70f
11:12 6
mph
1015.5mb 65f 70f
11:06 3 6 mph 1015.5mb 65f 70f
11:00 5 6 mph 1015.5mb 66f 70f
10:54 3 7 mph 1015.6mb 66f 70f
10:48 5 6 mph 1015.5mb 66f 70f
10:42 5 6 mph 1015.5mb 67f 70f
10:36 5 6 mph 1015.5mb 67f 70f
10:30 5 7 mph 1015.5mb 67f 70f
10:24 5 6 mph 1015.5mb 67f 70f
10:18 6 7 mph 1015.5mb 67f 70f
10:12 5 6 mph 1015.5mb 67f 70f
10:06 5 6 mph 1015.5mb 67f 70f
10:00 5 7 mph 1015.4mb 67f 70f
9:54 6 7 mph 1015.4mb 67f 70f
9:48 6 7 mph 1015.4mb 67f 70f
9:42 6 8 mph 1015.4mb 66f 70f
9:36 7 8 mph 1015.4mb 66f 70f
9:30 6 8 mph 1015.4mb 66f 70f
9:24 6 7 mph 1015.5mb 66f 70f
9:18 5 7 mph 1015.5mb 66f 70f
9:12 6 7 mph 1015.5mb 66f 70f
9:06 6 7 mph 1015.6mb 66f 70f
9:00 6 7 mph 1015.6mb 66f 70f
8:54 5 7 mph 1015.6mb 66f 70f
8:48 5 8 mph 1015.6mb 66f 69f
8:42 5 7 mph 1015.6mb 66f 69f
8:36 7 9 mph 1015.6mb 66f 69f
8:30 6 7 mph 1015.6mb 66f 69f
8:24 3 5 mph 1015.6mb 66f 69f
8:18 2 5 mph 1015.6mb 66f 70f
8:12 2 5 mph 1015.5mb 66f 70f
8:06 2 3 mph 1015.5mb 66f 71f
8:00 2 3 mph 1015.5mb 66f 71f
7:54 1 2 mph 1015.5mb 66f 71f
7:48 2 5 mph 1015.4mb 66f 71f
7:42 3 5 mph 1015.4mb 66f 70f
7:36 2
mph
1015.4mb 66f 70f
7:30 1 2 mph 1015.4mb 66f 69f
7:24  -  1 mph 1015.4mb 66f 67f
7:18  -  1 mph 1015.4mb 66f 66f
7:12  -  1 mph 1015.3mb 66f 65f
7:06 1 2 mph 1015.2mb 66f 64f
7:00 2
mph
1015.1mb 66f 63f
6:54 2
mph
1015.1mb 66f 63f
6:48 2
mph
1015mb 66f 62f
6:42 2
mph
1015mb 66f 62f
6:36 1
mph
1015mb 66f 62f
6:30 2 3 mph 1015mb 66f 61f
6:24 2 3 mph 1015mb 66f 61f
6:18 1 2 mph 1014.9mb 66f 62f
6:12  -  mph 1014.9mb 66f 62f
6:06  -  mph 1014.9mb 66f 62f
6:00  -  1 mph 1014.9mb 66f 62f
5:54  -  2 mph 1014.8mb 66f 62f
5:48 2
mph
1014.8mb 66f 61f
5:42 2 3 mph 1014.8mb 66f 61f
5:36 2 3 mph 1014.8mb 66f 61f
5:30 1
mph
1014.7mb 66f 62f
5:24 1 2 mph 1014.7mb 66f 62f
5:18 2
mph
1014.8mb 66f 62f
5:12 1 2 mph 1014.9mb 66f 62f
5:06 1 2 mph 1014.9mb 66f 62f
5:00  -  2 mph 1015mb 66f 62f
4:54 2 3 mph 1015mb 66f 62f
4:48 3
mph
1015mb 66f 62f
4:42 3
mph
1015mb 66f 62f
4:36 2 3 mph 1014.9mb 66f 62f
4:30 3
mph
1015mb 66f 63f
4:24  -  1 mph 1015mb 66f 64f
4:18 1 2 mph 1015.1mb 65f 65f
4:12 1 2 mph 1015.1mb 65f 65f
4:06 1 2 mph 1015.1mb 65f 65f
4:00 2 6 mph 1015.1mb 65f 65f
3:54 3 5 mph 1015.2mb 65f 65f
3:48 5 6 mph 1015.2mb 65f 66f
3:42 5 7 mph 1015.2mb 65f 65f
3:36 6
mph
1015.2mb 65f 65f
3:30 5 6 mph 1015.1mb 65f 65f
3:24 6 7 mph 1015.1mb 65f 66f
3:18 6 8 mph 1015.1mb 65f 66f
3:12 6 8 mph 1015mb 65f 66f
3:06 6 8 mph 1015mb 65f 66f
3:00 7 9 mph 1015mb 65f 67f
2:54 8 10 mph 1015mb 65f 67f
2:48 8 11 mph 1015.1mb 64f 67f
2:42 8 11 mph 1015.1mb 64f 67f
2:36 8 13 mph 1015.1mb 64f 67f
2:30 9 13 mph 1015.1mb 64f 67f
2:24 9 13 mph 1015.1mb 64f 67f
2:18 9 13 mph 1015.2mb 64f 67f
2:12 10 13 mph 1015.1mb 64f 67f
2:06 10 13 mph 1015.1mb 64f 67f
2:00 10 14 mph 1015mb 64f 67f
1:54 10 14 mph 1015mb 64f 67f
1:48 11 14 mph 1014.9mb 64f -
1:42 13 15 mph 1014.9mb 64f -
1:36 11 14 mph 1014.9mb 64f -
1:30 11 14 mph 1015mb 64f 67f
1:24 11 14 mph 1015mb 64f 68f
1:18 11 14 mph 1015mb 64f 68f
1:12 13 14 mph 1015.1mb 64f 68f
1:06 11 14 mph 1015.2mb 64f 68f
1:00 13 15 mph 1015.2mb 65f 68f
12:54 11 16 mph 1015.2mb 65f 68f
12:48 14 16 mph 1015.2mb 65f 68f
12:42 13 15 mph 1015.3mb 65f 68f
12:36 13 15 mph 1015.3mb 65f 68f
12:30 13 15 mph 1015.4mb 65f 68f
12:24 11 15 mph 1015.4mb 65f 68f
12:18 13 15 mph 1015.4mb 65f 68f
12:12 13 17 mph 1015.3mb 65f 68f
12:06 14 17 mph 1015.3mb 65f 68f
12:00 14 17 mph 1015.4mb 65f 68f
sam. 08/20 11:54 14 20 mph 1015.3mb 65f 69f
11:48 14 17 mph 1015.2mb 65f 69f
11:42 14 18 mph 1015.3mb 65f 69f
11:36 15 20 mph 1015.3mb 66f 69f
11:30 15 20 mph 1015.4mb 66f 69f
11:24 16 20 mph 1015.4mb 66f 69f
11:18 14 17 mph 1015.4mb 66f 69f
11:12 13 15 mph 1015.4mb 66f 69f
11:06 13 16 mph 1015.4mb 66f 69f
11:00 11 15 mph 1015.4mb 66f 69f
10:54 11 15 mph 1015.3mb 66f 69f
10:48 13 15 mph 1015.4mb 67f 69f
10:42 13 15 mph 1015.4mb 67f 69f
10:36 13 14 mph 1015.4mb 67f 69f
10:30 9 13 mph - 67f 68f
10:24 10 13 mph - 68f 69f
10:18 10 13 mph 1015.4mb 68f 69f
10:12 9 11 mph 1015.5mb 69f 69f
10:06 8 11 mph 1015.5mb 71f 69f
10:00  -  mph 1015.6mb 71f 69f
9:54  -  mph 1015.6mb 71f 69f
9:48  -  mph - 71f 69f
9:42  -  mph - 71f 69f
9:36  -  mph - 71f 69f
9:30 6 7 mph 1015.6mb 71f 69f
9:24 6 7 mph 1015.6mb 71f 69f
9:18 5 6 mph 1015.6mb 71f 69f
9:12 5 6 mph 1015.6mb 71f 69f
9:06 3 5 mph 1015.6mb 71f 69f
9:00  -  mph 1015.6mb 71f 69f
8:54  -  mph 1015.5mb 71f 69f
8:48  -  mph 1015.5mb 71f 69f
8:42  -  mph 1015.4mb 71f 69f
8:36  -  mph 1015.3mb 71f 69f
8:30 3 6 mph 1015.3mb 71f 69f
8:24 5 6 mph 1015.3mb 71f 69f
8:18  -  mph - 71f 69f
8:12  -  mph - 71f 69f
8:06  -  mph - 71f 69f
8:00 5 6 mph 1015.1mb 71f 69f
7:54 5 6 mph 1015.1mb 71f 69f
7:48  -  mph 1015.2mb 71f -
7:42  -  mph 1015.2mb 71f -
7:36  -  mph 1015mb 71f -
7:30 6 8 mph - 70f 69f
7:24 8 10 mph - 70f 69f
7:18 8 9 mph - 70f 69f
7:12 6 7 mph - 70f 70f
7:06 5 6 mph - 70f 70f
7:00 3 5 mph 1015mb 70f 70f
6:54 3 6 mph 1015mb 70f 70f
6:48  -  mph 1014.8mb - -
6:42  -  mph 1014.8mb - -
6:36  -  mph 1014.8mb - -
6:30 3 5 mph 1014.8mb 69f 70f
6:24 3 5 mph 1014.8mb 69f 70f
6:18  -  mph - 69f 70f
6:12  -  mph - 69f 71f
6:06  -  mph - 69f 71f
6:00 5 6 mph 1014.7mb 69f -
5:54 5 6 mph 1014.7mb 68f -
5:48 5 6 mph - 68f 71f
5:42 3 6 mph - 68f 71f
5:36 6 7 mph - 68f 71f
5:30 6 7 mph 1014.9mb 68f 71f
5:24 5 7 mph 1014.8mb 67f 71f
5:18 6 7 mph 1014.8mb 67f 71f
5:12 6 8 mph 1014.8mb 67f 71f
5:06 6 8 mph 1014.7mb 67f 71f
5:00 6 9 mph 1014.7mb 67f 71f
4:54 6 8 mph 1014.7mb 66f 72f
4:48 6 9 mph 1014.7mb 66f 72f
4:42 7 9 mph 1014.7mb 66f 72f
4:36 6 9 mph 1014.7mb 66f 72f